Terminal Aerodrome Forecast
Issued by NWS Dallas/Fort Worth, TX

Home | Current Version | Previous Version | Text Only | Print | Product List | Glossary On
Versions: 1 2 3 4 5 6 7 8 9 10 11 12 13 14 15 16 17 18 19 20 21 22 23 24 25 26 27
000
FTUS44 KFWD 210300 AAA
TAFACT
TAF AMD
KACT 210300Z 2103/2124 16014KT P6SM FEW250
     FM211100 19011KT P6SM BKN015
     FM211400 19013KT P6SM BKN025
     FM211600 18015KT P6SM SCT050=

USA.gov is the U.S. government's official web portal to all federal, state and local government web resources and services.